Weather History for Hill City, KS

Change the Weather History Date:

Wednesday, August 22, 2012

  Actual Average Record
Temperature  
Mean Temperature 79 °F 76 °F  
Max Temperature 93 °F 89 °F 107 °F (1938)
Min Temperature 65 °F 62 °F 44 °F (1923)
Cooling Degree Days 12    
Growing Degree Days 28 (Base 50)    
Moisture  
Dew Point 56 °F    
Average Humidity 49    
Maximum Humidity 81    
Minimum Humidity 25    
Precipitation  
Precipitation 0.00 in 0.09 in 0.72 in (2014)
Month to date precipitation 0.65 2.05  
Year to date precipitation 6.21 17.02  
Sea Level Pressure  
Sea Level Pressure 29.91 in    
Wind  
Wind Speed 11 mph (SSW)    
Max Wind Speed 22 mph    
Max Gust Speed 29 mph    
Visibility 10 miles    
Events      
T = Trace of Precipitation, MM = Missing Value Source: NWS Daily Summary

Daily Weather History Graph

Daily Weather History Graph

Search for Another Location

Airport:

Trip Planner

Search our weather history database for the weather conditions in past years. The results will help you decide how hot, cold, wet, or windy it might be!

Date:

Astronomy

Aug. 22, 2012 Rise Set
Actual Time 6:59 AM CDT 8:24 PM CDT
Civil Twilight 6:30 AM CDT 8:52 PM CDT
Nautical Twilight 5:57 AM CDT 9:26 PM CDT
Astronomical Twilight 5:21 AM CDT 10:01 PM CDT
Moon 12:37 PM CDT 11:09 PM CDT
Length of Visible Light 14h 21m
Length of Day
13h 25m
Waxing Crescent, 29% of the Moon is Illuminated
Aug 22
Waxing Crescent
Aug 24
First Quarter
Aug 31
Full
Sep 8
Last Quarter
Sep 15
New

Hourly Weather History & Observations

Time (CDT) Temp. Heat Index Dew Point Humidity Pressure Visibility Wind Dir Wind Speed Gust Speed Precip Events Conditions
12:53 AM 72.0 °F - 48.9 °F 44% 29.96 in 10.0 mi SSW 10.4 mph - N/A   Clear
1:53 AM 70.0 °F - 50.0 °F 49% 29.96 in 10.0 mi SSW 10.4 mph - N/A   Clear
2:53 AM 69.1 °F - 52.0 °F 54% 29.95 in 10.0 mi SSW 9.2 mph - N/A   Clear
3:53 AM 68.0 °F - 55.0 °F 63% 29.95 in 10.0 mi SW 6.9 mph - N/A   Clear
4:53 AM 66.9 °F - 55.9 °F 68% 29.94 in 10.0 mi SW 6.9 mph - N/A   Clear
5:53 AM 66.0 °F - 57.9 °F 75% 29.95 in 10.0 mi SW 9.2 mph - N/A   Clear
6:53 AM 64.9 °F - 59.0 °F 81% 29.96 in 10.0 mi SSW 5.8 mph - N/A   Clear
7:53 AM 66.0 °F - 60.1 °F 81% 29.97 in 9.0 mi SSW 6.9 mph - N/A   Clear
8:53 AM 71.1 °F - 61.0 °F 70% 29.97 in 10.0 mi SSW 11.5 mph - N/A   Clear
9:53 AM 77.0 °F - 62.1 °F 60% 29.96 in 10.0 mi SSW 12.7 mph - N/A   Clear
10:53 AM 81.0 °F 81.3 °F 59.0 °F 47% 29.95 in 10.0 mi South 15.0 mph 24.2 mph N/A   Clear
11:53 AM 86.0 °F 84.0 °F 53.1 °F 32% 29.94 in 10.0 mi SSW 21.9 mph 28.8 mph N/A   Clear
1:53 PM 89.1 °F 86.9 °F 54.0 °F 30% 29.90 in 10.0 mi SSW 17.3 mph 27.6 mph N/A   Clear
2:53 PM 91.0 °F - 51.1 °F 25% 29.88 in 10.0 mi SSE 15.0 mph 27.6 mph N/A   Clear
3:53 PM 90.0 °F - 52.0 °F 27% 29.86 in 10.0 mi South 13.8 mph 28.8 mph N/A   Clear
4:53 PM 91.9 °F 89.5 °F 53.1 °F 27% 29.84 in 10.0 mi South 15.0 mph 28.8 mph N/A   Clear
5:53 PM 89.1 °F 86.9 °F 54.0 °F 30% 29.83 in 10.0 mi South 16.1 mph 24.2 mph N/A   Clear
6:53 PM 88.0 °F 86.1 °F 55.0 °F 32% 29.83 in 10.0 mi SSE 13.8 mph 23.0 mph N/A   Clear
7:53 PM 84.9 °F 83.7 °F 55.9 °F 37% 29.83 in 10.0 mi South 15.0 mph 23.0 mph N/A   Clear
8:53 PM 82.0 °F 81.7 °F 57.0 °F 42% 29.85 in 10.0 mi SSE 13.8 mph 19.6 mph N/A   Clear
9:53 PM 80.1 °F 80.6 °F 57.9 °F 47% 29.86 in 10.0 mi SSE 10.4 mph - N/A   Clear
11:53 PM 78.1 °F - 59.0 °F 52% 29.86 in 10.0 mi South 9.2 mph - N/A   Clear